Change the Weather History Date:

Saturday, February 23, 2013

  Actual Average Record
Temperature  
Mean Temperature 34 °F -  
Max Temperature 39 °F 38 °F 54 °F (2012)
Min Temperature 30 °F 20 °F 3 °F (2015)
Degree Days  
Heating Degree Days 30    
Moisture  
Dew Point 30 °F    
Average Humidity 85    
Maximum Humidity 100    
Minimum Humidity 65    
Precipitation  
Precipitation 0.18 in - - ()
Sea Level Pressure  
Sea Level Pressure 30.11 in    
Wind  
Wind Speed 2 mph (ESE)    
Max Wind Speed 10 mph    
Max Gust Speed -    
Visibility 7 miles    
Events Rain , Snow    
Averages and records for this station are not official NWS values.
T = Trace of Precipitation, MM = Missing Value Source: NWS Daily Summary

Daily Weather History Graph

Daily Weather History Graph

Search for Another Location

Airport or City:

Trip Planner

Search our weather history database for the weather conditions in past years. The results will help you decide how hot, cold, wet, or windy it might be!

Date:

Astronomy

Feb. 23, 2013 Rise Set
Actual Time 6:28 AM EST 5:27 PM EST
Civil Twilight 6:00 AM EST 5:55 PM EST
Nautical Twilight 5:28 AM EST 6:28 PM EST
Astronomical Twilight 4:55 AM EST 7:00 PM EST
Moon 3:33 PM EST (2/23) 4:51 AM EST (2/23)
Length of Visible Light 11h 55m
Length of Day
10h 58m
Waxing Gibbous, 95% of the Moon is Illuminated
Feb 23
Waxing Gibbous
Feb 25
Full
Mar 4
Last Quarter
Mar 11
New
Mar 19
First Quarter

Hourly Weather History & Observations

Time (EST) Temp. Windchill Dew Point Humidity Pressure Visibility Wind Dir Wind Speed Gust Speed Precip Events Conditions
12:53 AM 30.0 °F - 26.1 °F 85% 30.32 in 10.0 mi Calm Calm - N/A   Overcast
1:53 AM 30.9 °F - 26.1 °F 82% 30.31 in 10.0 mi Calm Calm - N/A   Overcast
2:53 AM 30.9 °F - 27.0 °F 85% 30.30 in 10.0 mi Calm Calm - N/A   Overcast
3:53 AM 30.9 °F - 27.0 °F 85% 30.28 in 10.0 mi Calm Calm - N/A   Overcast
4:53 AM 30.9 °F - 27.0 °F 85% 30.27 in 10.0 mi Calm Calm - N/A   Overcast
5:53 AM 32.0 °F - 27.0 °F 82% 30.26 in 10.0 mi Calm Calm - N/A   Overcast
6:53 AM 32.0 °F - 28.0 °F 85% 30.25 in 10.0 mi Calm Calm - N/A   Overcast
7:53 AM 34.0 °F - 27.0 °F 75% 30.25 in 10.0 mi Calm Calm - N/A   Overcast
8:53 AM 36.0 °F - 28.0 °F 73% 30.24 in 10.0 mi Calm Calm - N/A   Overcast
9:53 AM 36.0 °F 30.3 °F 28.0 °F 73% 30.22 in 10.0 mi SE 6.9 mph - N/A   Overcast
10:53 AM 37.0 °F 29.8 °F 27.0 °F 67% 30.21 in 10.0 mi SE 10.4 mph - N/A   Overcast
11:53 AM 37.9 °F 30.9 °F 28.0 °F 68% 30.17 in 10.0 mi SSE 10.4 mph - N/A   Overcast
12:53 PM 37.9 °F 31.5 °F 28.0 °F 68% 30.14 in 10.0 mi SE 9.2 mph - N/A   Overcast
1:53 PM 39.0 °F 32.8 °F 28.0 °F 65% 30.13 in 10.0 mi SE 9.2 mph - N/A   Overcast
2:07 PM 39.2 °F 35.9 °F 28.4 °F 65% 30.13 in 10.0 mi SSE 4.6 mph - N/A   Overcast
2:31 PM 39.2 °F 33.6 °F 28.4 °F 65% 30.12 in 10.0 mi SE 8.1 mph - N/A   Overcast
2:53 PM 39.0 °F 34.8 °F 28.0 °F 65% 30.12 in 10.0 mi SE 5.8 mph - N/A   Overcast
3:53 PM 39.0 °F 34.0 °F 28.9 °F 67% 30.09 in 10.0 mi SSE 6.9 mph - N/A   Overcast
4:53 PM 37.9 °F 32.1 °F 30.0 °F 73% 30.07 in 10.0 mi ESE 8.1 mph - N/A   Overcast
5:53 PM 34.0 °F 28.8 °F 33.1 °F 96% 30.05 in 4.0 mi East 5.8 mph - 0.01 in Rain , Snow Light Snow
6:45 PM 33.8 °F - 33.8 °F 100% 30.04 in 2.0 mi Calm Calm - 0.02 in Snow Light Snow
6:53 PM 34.0 °F - 33.1 °F 96% 30.05 in 2.5 mi Calm Calm - 0.02 in Snow Light Snow
7:02 PM 33.8 °F - 33.8 °F 100% 30.04 in 4.0 mi Calm Calm - 0.01 in Snow Light Snow
7:09 PM 33.8 °F 29.6 °F 33.8 °F 100% 30.03 in 3.0 mi ENE 4.6 mph - 0.01 in Snow Light Snow
7:17 PM 33.8 °F - 33.8 °F 100% 30.04 in 3.0 mi Calm Calm - 0.02 in Snow Light Snow
7:53 PM 33.1 °F - 33.1 °F 100% 30.03 in 3.0 mi Calm Calm - 0.03 in   Overcast
8:02 PM 33.8 °F 30.8 °F 33.8 °F 100% 30.02 in 6.0 mi NE 3.5 mph - 0.00 in Rain Light Rain
8:53 PM 34.0 °F - 33.1 °F 96% 30.02 in 8.0 mi Calm Calm - 0.01 in   Overcast
9:12 PM 33.8 °F - 33.8 °F 100% 30.00 in 6.0 mi Calm Calm - 0.02 in Rain Light Rain
9:41 PM 33.8 °F 29.6 °F 33.8 °F 100% 29.97 in 5.0 mi NE 4.6 mph - 0.06 in Rain Light Rain
10:29 PM 33.8 °F - 33.8 °F 100% 29.94 in 4.0 mi Calm Calm - 0.06 in Rain Light Rain
10:46 PM 33.8 °F - 33.8 °F 100% 29.93 in 3.0 mi Calm Calm - 0.09 in Rain Light Rain
10:53 PM 34.0 °F 29.8 °F 33.1 °F 96% 29.93 in 4.0 mi North 4.6 mph - 0.09 in Rain Light Rain
11:53 PM 35.1 °F - 35.1 °F 100% 29.91 in 5.0 mi North - - 0.02 in Rain Light Rain